Weather in Kuralovo

Russia / Republic of Tatarstan     55°02′51″N   49°25′56″E
temp.,
°C
wind,
m/s
gust,
m/s
humid.,
%
clouds,
%
prec.,
mm/h
press.,
hPa
HPBL,
m
20 april, tue
tue2000:00+3e614415 0.0 1029381
03:00+1e612530 0.0 1030288
06:00+2ese512570 0.0 1031409
09:00+6ese710320 0.0 10311071
12:00+9ese79260 0.0 10301423
15:00+10ese79240 0.0 10291532
18:00+8ese5103231 0.0 1028411
21:00+6ese61438100 0.0 1028475
21 april, wed
wed2100:00+5se71542100 0.0 1026585
03:00+4se81645100 0.0 1026674
06:00+4se91846100 0.0 1024728
09:00+5se101843100 0.0 1023829
12:00+5sse91753100 0.3 1023906
15:00+3sse101880100 0.6 1023855
18:00+3sse91787100 0.9 1023783
21:00+2sse81695100 1.9 1023660
22 april, thu
thu2200:00+3sse71493100 1.3 1023647
03:00+4sse61294100 2.0 1023544
06:00+4sse61392100 0.9 1023518
09:00+6s61290100 1.0 1024627
12:00+8s7108499 0.0 1024581
15:00+10s6877100 0.1 1024956
18:00+9sse61180100 0.1 1025555
21:00+6sse7138718 0.1 1025388
23 april, fri
fri2300:00+4s613928 0.0 1025360
03:00+3sse5109410 0.0 1025268
06:00+4sse59895 0.0 1026306
09:00+9s566914 0.0 1026656
12:00+13s445823 0.0 10241060
15:00+14se445614 0.0 10231250
18:00+12se586913 0.0 1023431
21:00+8se478482 0.0 1023170
24 april, sat
sat2400:00+6ese348692 0.0 102282
03:00+6ese3588100 0.0 102089
06:00+6ese2586100 0.0 1019159
09:00+11se346987 0.0 1017712
12:00+12se225999 0.0 10161354
15:00+11se4466100 0.1 1015741
18:00+11se467190 0.0 1014336
21:00+7sse48851 0.0 1013158